Location: Unspecified
(48.2082°N, 0.0000°E)
Time: 10:36:05
(UTC+00:00)

Altair - Pass Details

Date: 25 June 2019
Orbit: 1501 x 1683 km, 47.2° (Epoch: 16 August)

Event Time Altitude Azimuth Distance (km) Brightness Sun altitude
Rises 01:52:04 0° 291° (WNW) 4,848 10.1 -14.3°
Reaches altitude 10° 01:55:33 10° 282° (WNW) 3,883 9.5 -14.0°
Maximum altitude 02:04:01 33° 223° (SW) 2,530 8.1 -13.4°
Drops below altitude 10° 02:12:38 10° 165° (SSE) 3,936 9.2 -12.7°
Sets 02:16:13 0° 156° (SSE) 4,922 9.8 -12.4°
